CAPE
64 53 19 8 19 6 3 5 1 0 0 0 1 0 0 0 0 0 1 177 196 198 186 201 172 140 95 30 40 42 26 14 7 5 6 20 0 0 0 0 0 0 0 0
37 4 0 2 44 24 15 6 4 0 0 0 0 1 0 0 0 0 0 94 214 202 184 92 30 0 10 23 3 0 0 2 7 7 0 0 0 0 0 0 0 0 0 0
10 12 22 5 12 41 25 31 3 1 2 1 0 0 0 0 0 0 0 0 157 94 6 0 0 0 0 0 0 0 0 0 0 0 0 0 0 0 0 0 0 0 0 0
44 35 27 13 5 5 14 4 0 0 2 11 12 1 0 0 0 0 0 0 56 1 0 0 0 0 0 0 0 0 0 0 0 0 0 0 0 0 0 0 0 0 0 0
9 30 32 16 14 5 12 9 0 0 5 1 4 2 0 0 3 0 0 5 0 0 0 0 0 0 0 0 0 0 0 0 0 0 0 0 0 0 0 0 0 0 0 0
35 6 18 33 38 16 22 0 1 1 4 1 2 0 0 0 3 0 0 0 0 0 0 0 0 0 0 0 0 0 0 0 0 0 0 0 0 0 0 0 0 0 0 0
9 0 6 14 82 42 60 7 0 0 1 0 0 3 0 0 0 0 0 0 0 0 0 0 0 0 0 0 0 0 0 0 0 0 0 0 0 0 0 0 0 0 0 0
0 1 13 3 31 34 43 9 0 1 0 0 0 0 0 0 0 0 0 0 0 0 0 0 0 0 0 0 0 0 0 0 0 0 1 1 0 0 0 0 0 0 0 0
1 4 13 0 0 12 18 44 0 0 0 0 0 0 0 0 0 0 0 0 0 0 0 0 0 0 1 1 1 0 0 0 0 0 0 0 0 0 0 0 0 0 0 0
26 14 0 1 4 1 1 0 0 0 0 0 0 0 0 0 0 0 0 0 0 0 0 2 1 1 1 1 1 0 0 0 0 0 0 0 0 0 0 0 0 0 0 0
14 3 6 11 20 24 9 1 1 0 0 0 0 0 0 0 0 0 0 0 0 0 1 1 1 0 0 0 0 0 0 0 0 0 0 0 0 0 0 0 0 0 0 0
9 6 7 6 1 1 0 10 0 0 0 0 0 0 0 0 0 0 0 0 0 0 0 0 0 0 0 0 0 0 0 0 0 0 0 0 0 0 0 0 0 0 0 0
9 0 0 1 0 2 2 0 0 0 0 0 0 0 0 0 0 0 0 1 0 0 0 0 0 0 0 0 0 0 0 0 0 0 0 0 0 0 0 0 0 0 0 0
5 1 3 0 0 0 1 0 0 0 0 0 0 0 0 0 0 0 0 0 0 0 0 0 0 0 0 0 0 0 0 0 0 0 0 0 0 0 0 0 0 0 0 0
4 4 0 0 0 0 0 1 2 6 0 0 0 0 0 0 0 0 0 0 0 0 0 0 0 0 0 0 0 0 0 0 0 0 0 0 0 0 0 0 0 0 0 0
4 2 0 0 0 0 0 0 0 1 0 0 0 0 0 0 0 0 0 0 0 0 0 0 0 0 0 0 0 0 0 0 0 0 0 0 0 0 0 0 0 0 0 0
2 1 0 0 0 0 0 0 0 0 0 0 0 0 0 0 0 0 0 0 0 0 0 0 0 0 0 0 0 0 0 0 0 0 0 0 0 0 0 0 0 0 0 0
0 1 0 0 0 0 0 0 0 0 0 0 0 0 0 0 0 0 0 0 0 0 0 0 0 0 0 0 0 0 0 0 0 0 0 0 0 0 0 0 0 0 0 0
1 0 1 0 0 0 0 0 0 0 0 0 0 0 0 0 0 0 0 0 0 0 0 0 0 0 0 0 0 0 0 0 0 0 0 0 0 0 0 0 0 0 0 0
2 3 1 0 0 0 0 0 0 0 0 0 0 0 0 0 0 0 0 0 0 0 0 0 0 0 0 0 0 0 0 0 0 0 0 0 0 0 0 0 0 0 0 0
3 1 0 2 0 0 0 0 0 0 0 0 0 0 0 0 0 0 0 0 0 0 0 0 0 0 0 0 0 0 0 0 0 0 0 0 0 0 0 0 0 0 0 0
0 0 0 2 5 0 0 0 0 0 0 0 0 0 0 0 0 0 0 0 0 0 0 0 0 0 0 0 0 0 0 0 0 0 0 0 0 0 0 0 0 0 0 0
0 0 0 0 0 0 0 0 0 0 0 0 0 0 0 0 0 0 0 0 0 0 0 0 0 0 0 0 0 0 0 0 0 0 0 0 0 0 0 0 0 0 0 0
0 0 0 0 0 0 0 0 0 0 0 0 0 0 0 0 0 0 0 0 0 0 0 0 0 0 0 0 0 0 0 0 0 0 0 0 0 0 0 0 0 0 0 0
0 0 0 0 0 0 0 0 0 0 0 0 0 0 0 0 0 0 0 0 0 0 0 0 0 0 0 0 0 0 0 0 0 0 0 0 0 0 0 0 0 0 0 0
0 0 0 0 0 0 0 0 0 0 0 0 0 0 0 0 0 0 0 0 0 0 0 0 0 0 0 0 0 0 0 0 0 0 0 0 0 0 0 0 0 0 0 0
CIN
-0 -0 -0 -0 -7 -6 -4 -3 -5 -0 -0 -0 -3 -0 -0 -0 -0 -0 -1 -9 -20 -23 -24 -16 -9 -14 -13 -45 -33 -28 -30 -16 -11 -7 -8 -14 -0 -0 -0 -0 -0 -0 -0 -0
-0 -0 -0 -0 -5 -10 -1 -5 -5 -0 -0 -0 -0 -4 -0 -0 -0 -0 -0 -9 -8 -7 -23 -72 -70 -0 -65 -50 -49 -0 -0 -21 -49 -87 -0 -0 -0 -0 -0 -0 -0 -0 -0 -0
-0 -0 -2 -6 -2 -0 -3 -3 -2 -5 -0 -0 -1 -1 -0 -0 -0 -0 -0 -0 -26 -96 -64 -0 -0 -0 -0 -0 -0 -0 -0 -0 -0 -0 -0 -0 -0 -0 -0 -0 -0 -0 -0 -0
-1 -2 -0 -0 -0 -0 -0 -17 -0 -0 -4 -0 -3 -0 -0 -0 -0 -0 -0 -0 -80 -2 -0 -0 -0 -0 -0 -0 -0 -0 -0 -0 -0 -0 -0 -0 -0 -0 -0 -0 -0 -0 -0 -0
-3 -4 -0 -0 -0 -4 -0 -1 -0 -0 -0 -0 -0 -0 -0 -0 -34 -0 -0 -126 -0 -0 -0 -0 -0 -0 -0 -0 -0 -0 -0 -0 -0 -0 -0 -0 -0 -0 -0 -0 -0 -0 -0 -0
-6 -29 -9 -3 -3 -4 -2 -0 -0 -1 -0 -0 -0 -0 -0 -1 -1 -0 -0 -0 -0 -0 -0 -0 -0 -0 -0 -0 -0 -0 -0 -0 -0 -0 -0 -0 -0 -0 -0 -0 -0 -0 -0 -0
-17 -0 -5 -45 -3 -1 -0 -0 -0 -0 -0 -0 -0 -0 -0 -0 -0 -0 -0 -0 -0 -0 -0 -0 -0 -0 -0 -0 -0 -0 -0 -0 -0 -0 -0 -0 -0 -0 -0 -0 -0 -0 -0 -0
-0 -0 -2 -15 -3 -10 -0 -0 -0 -0 -0 -0 -0 -0 -0 -0 -0 -0 -0 -0 -0 -0 -0 -0 -0 -0 -0 -0 -0 -0 -0 -0 -0 -0 -0 -0 -0 -0 -0 -0 -0 -0 -0 -0
-0 -3 -11 -0 -0 -8 -2 -0 -0 -0 -0 -0 -0 -0 -0 -0 -0 -0 -0 -0 -0 -0 -0 -0 -0 -0 -0 -0 -0 -0 -0 -0 -0 -0 -0 -0 -0 -0 -0 -0 -0 -0 -0 -0
-1 -2 -0 -10 -0 -3 -6 -0 -1 -0 -1 -0 -0 -0 -0 -0 -0 -0 -0 -0 -0 -0 -0 -0 -0 -0 -0 -0 -0 -0 -0 -0 -0 -0 -0 -0 -0 -0 -0 -0 -0 -0 -0 -0
-2 -16 -0 -3 -2 -4 -5 -0 -5 -0 -0 -3 -0 -0 -0 -0 -0 -0 -0 -0 -0 -0 -0 -0 -0 -0 -0 -0 -0 -0 -0 -0 -0 -0 -0 -0 -0 -0 -0 -0 -0 -0 -0 -0
-0 -0 -0 -1 -0 -0 -0 -7 -0 -0 -0 -0 -0 -0 -0 -0 -0 -0 -0 -0 -0 -0 -0 -0 -0 -0 -0 -0 -0 -0 -0 -0 -0 -0 -0 -0 -0 -0 -0 -0 -0 -0 -0 -0
-0 -0 -0 -0 -0 -0 -0 -0 -0 -2 -0 -0 -0 -0 -0 -0 -0 -0 -0 -0 -0 -0 -0 -0 -0 -0 -0 -0 -0 -0 -0 -0 -0 -0 -0 -0 -0 -0 -0 -0 -0 -0 -0 -0
-1 -0 -4 -0 -0 -0 -0 -0 -0 -0 -0 -0 -0 -0 -0 -0 -0 -0 -0 -0 -0 -0 -0 -0 -0 -0 -0 -0 -0 -0 -0 -0 -0 -0 -0 -0 -0 -0 -0 -0 -0 -0 -0 -0
-7 -3 -0 -0 -0 -0 -4 -0 -0 -0 -0 -0 -0 -0 -0 -0 -0 -0 -0 -0 -0 -0 -0 -0 -0 -0 -0 -0 -0 -0 -0 -0 -0 -0 -0 -0 -0 -0 -0 -0 -0 -0 -0 -0
-0 -4 -0 -0 -0 -0 -0 -5 -0 -0 -0 -0 -0 -0 -0 -0 -0 -0 -0 -0 -0 -0 -0 -0 -0 -0 -0 -0 -0 -0 -0 -0 -0 -0 -0 -0 -0 -0 -0 -0 -0 -0 -0 -0
-0 -0 -0 -2 -0 -0 -0 -0 -0 -0 -0 -0 -0 -0 -0 -0 -0 -0 -0 -0 -0 -0 -0 -0 -0 -0 -0 -0 -0 -0 -0 -0 -0 -0 -0 -0 -0 -0 -0 -0 -0 -0 -0 -0
-0 -0 -0 -0 -0 -0 -0 -0 -0 -0 -0 -0 -0 -0 -0 -0 -0 -0 -0 -0 -0 -0 -0 -0 -0 -0 -0 -0 -0 -0 -0 -0 -0 -0 -0 -0 -0 -0 -0 -0 -0 -0 -0 -0
-0 -0 -0 -0 -0 -0 -0 -0 -0 -0 -0 -0 -0 -0 -0 -0 -0 -0 -0 -0 -0 -0 -0 -0 -0 -0 -0 -0 -0 -0 -0 -0 -0 -0 -0 -0 -0 -0 -0 -0 -0 -0 -0 -0
-0 -0 -0 -0 -0 -0 -0 -0 -0 -0 -0 -0 -0 -0 -0 -0 -0 -0 -0 -0 -0 -0 -0 -0 -0 -0 -0 -0 -0 -0 -0 -0 -0 -0 -0 -0 -0 -0 -0 -0 -0 -0 -0 -0
-0 -0 -0 -0 -1 -0 -0 -0 -0 -0 -0 -0 -0 -0 -0 -0 -0 -0 -0 -0 -0 -0 -0 -0 -0 -0 -0 -0 -0 -0 -0 -0 -0 -0 -0 -0 -0 -0 -0 -0 -0 -0 -0 -0
-0 -0 -0 -0 -1 -0 -0 -0 -0 -0 -0 -0 -0 -0 -0 -0 -0 -0 -0 -0 -0 -0 -0 -0 -0 -0 -0 -0 -0 -0 -0 -0 -0 -0 -0 -0 -0 -0 -0 -0 -0 -0 -0 -0
-0 -0 -0 -0 -0 -0 -0 -0 -0 -0 -0 -0 -0 -0 -0 -0 -0 -0 -0 -0 -0 -0 -0 -0 -0 -0 -0 -0 -0 -0 -0 -0 -0 -0 -0 -0 -0 -0 -0 -0 -0 -0 -0 -0
-0 -0 -0 -0 -0 -0 -0 -0 -0 -0 -0 -0 -0 -0 -0 -0 -0 -0 -0 -0 -0 -0 -0 -0 -0 -0 -0 -0 -0 -0 -0 -0 -0 -0 -0 -0 -0 -0 -0 -0 -0 -0 -0 -0
-0 -0 -0 -0 -0 -0 -0 -0 -0 -0 -0 -0 -0 -0 -0 -0 -0 -0 -0 -0 -0 -0 -0 -0 -0 -0 -0 -0 -0 -0 -0 -0 -0 -0 -0 -0 -0 -0 -0 -0 -0 -0 -0 -0
-0 -0 -0 -0 -0 -0 -0 -0 -0 -0 -0 -0 -0 -0 -0 -0 -0 -0 -0 -0 -0 -0 -0 -0 -0 -0 -0 -0 -0 -0 -0 -0 -0 -0 -0 -0 -0 -0 -0 -0 -0 -0 -0 -0
Wind_Speed
6 6 8 16 17 7 7 10 7 3 5 4 13 13 15 8 5 4 5 9 10 8 8 8 8 7 7 6 6 5 6 6 4 3 4 2 6 6 7 8 10 9 8 7
3 10 10 1 8 6 9 15 7 5 5 4 11 15 11 10 6 8 5 7 11 8 8 11 13 13 10 9 10 11 11 11 8 4 4 6 5 6 7 8 9 9 10 10
5 7 1 8 8 9 6 10 10 7 6 1 2 8 12 10 5 5 5 5 8 15 12 13 15 13 13 15 15 13 14 13 12 8 9 9 7 5 7 7 8 9 11 11
8 5 7 7 5 0 7 9 9 11 10 4 5 3 13 15 10 8 7 3 11 15 15 12 11 11 12 12 13 14 13 13 11 11 11 13 9 8 8 7 8 8 11 11
1 8 4 9 4 2 2 8 7 6 4 2 5 2 7 18 17 10 8 9 12 13 14 12 11 12 11 11 11 11 13 14 14 14 13 11 12 8 7 7 9 9 8 10
1 0 4 1 8 4 4 10 11 6 3 3 6 6 4 3 6 13 10 10 13 13 13 13 12 11 11 11 12 12 14 15 14 15 14 15 14 11 9 10 7 7 7 8
5 4 2 3 8 10 7 5 2 3 2 3 1 6 7 5 8 14 15 12 12 13 12 11 11 10 10 12 12 11 12 14 13 13 12 13 13 11 11 9 6 7 5 4
5 3 6 6 1 5 11 6 2 2 3 3 4 6 3 4 8 15 13 13 12 12 11 13 12 10 11 11 10 10 12 11 13 9 11 9 9 7 6 6 5 3 2 4
5 4 5 8 5 3 3 4 1 4 2 3 4 2 2 7 11 13 15 13 13 13 12 12 11 9 9 8 9 8 9 8 10 8 7 8 6 6 6 5 6 5 5 6
3 4 4 2 0 4 2 8 4 3 4 4 4 4 4 7 11 11 12 13 14 13 13 11 9 9 8 8 7 7 7 9 7 6 6 5 6 8 9 8 7 7 6 7
6 2 2 2 2 3 4 3 4 2 1 3 4 3 4 6 14 13 12 13 15 14 10 9 8 8 7 6 6 6 6 7 7 7 6 7 8 9 8 7 7 6 6 6
1 1 4 2 2 4 3 1 5 3 3 2 3 3 6 5 13 14 13 13 13 12 10 9 8 8 7 7 7 7 6 7 7 6 7 8 7 7 7 7 6 5 5 5
4 2 3 1 1 3 2 2 3 3 3 4 4 2 2 3 11 13 15 14 12 12 11 9 9 8 8 6 6 6 7 7 6 5 6 7 7 7 7 6 5 5 5 5
0 1 2 1 3 6 6 9 9 4 3 3 4 2 4 6 10 13 15 15 14 11 11 10 8 9 8 7 6 7 7 6 5 7 7 6 6 5 5 4 4 5 5 5
2 3 3 4 3 2 4 10 14 14 11 7 5 6 5 12 13 16 17 16 14 12 12 11 11 9 8 7 7 7 6 6 6 6 6 5 5 4 5 5 5 5 5 4
2 2 2 1 2 1 2 8 12 11 14 12 14 11 3 7 7 12 15 17 16 15 13 12 12 11 10 9 7 7 6 6 5 6 5 5 5 5 5 4 4 4 5 5
4 2 1 3 4 2 4 10 13 11 7 12 10 11 5 4 9 16 17 18 17 15 13 13 13 11 10 9 9 8 7 6 6 6 5 3 5 4 3 3 4 4 5 4
2 2 1 1 2 1 6 2 2 15 7 12 7 2 3 4 3 8 11 16 15 13 13 11 10 9 8 7 8 8 6 6 6 5 5 4 4 3 3 4 4 4 3 3
3 1 2 3 3 6 2 3 5 7 6 11 9 7 6 6 5 3 7 13 13 12 11 11 11 11 10 9 8 8 7 6 5 5 4 4 3 2 2 3 3 3 3 3
1 1 2 2 2 6 2 2 2 4 5 5 3 8 8 7 4 6 9 11 13 15 15 14 13 10 9 8 9 8 7 6 5 5 4 4 3 2 2 2 2 2 2 3
3 2 3 3 3 8 3 4 2 6 5 3 4 4 9 7 4 3 12 9 13 13 16 14 12 11 10 9 9 8 7 6 5 5 4 3 2 1 1 2 2 2 3 4
5 6 4 2 3 9 5 4 6 4 1 1 3 4 6 5 5 11 9 12 14 15 14 12 11 10 8 7 8 8 6 6 5 5 4 3 2 1 1 2 2 2 3 3
3 3 4 7 7 1 8 2 3 3 3 1 2 5 4 9 6 8 11 12 12 14 12 9 11 10 6 6 6 7 6 6 5 4 3 2 1 1 1 1 2 2 2 2
5 3 3 3 6 6 6 4 4 4 3 2 3 4 7 7 8 7 8 9 10 9 10 6 10 9 7 4 5 6 7 6 5 4 4 4 2 1 1 1 1 1 2 2
5 5 5 6 8 6 9 9 7 7 6 4 2 2 6 9 8 8 7 8 9 9 6 8 9 8 8 6 6 5 6 6 6 4 3 2 2 2 2 2 3 2 2 2
7 9 7 8 7 4 2 2 4 9 7 7 6 4 3 7 9 9 7 8 9 9 6 7 6 7 7 7 7 6 6 6 5 4 2 2 2 2 2 2 3 7 9 10
Wind_Direction
170 235 228 186 179 186 164 196 202 128 102 55 253 211 239 248 181 198 270 142 145 155 160 144 149 148 137 119 118 138 148 167 155 161 169 118 82 68 65 57 48 43 31 29
274 232 286 223 223 151 175 171 181 34 51 136 275 237 229 237 230 174 257 164 144 136 101 71 58 44 41 53 51 51 50 46 44 55 67 105 100 75 84 72 56 41 36 31
236 320 272 202 213 206 183 176 160 136 136 173 275 263 252 238 253 123 66 10 141 120 106 72 63 49 47 46 44 48 43 39 40 57 92 94 93 81 71 65 61 33 42 36
214 209 292 324 122 263 157 111 107 126 155 204 180 251 213 222 210 148 124 293 105 102 91 84 75 60 51 52 52 51 47 44 44 58 71 76 77 77 73 67 61 48 41 33
191 164 205 213 63 70 14 131 137 136 107 68 169 246 287 191 206 153 137 108 97 96 99 93 83 79 70 64 62 64 61 54 52 63 78 83 79 68 60 54 53 40 30 35
105 295 146 105 154 131 117 74 59 54 75 193 180 191 263 177 172 135 102 91 99 98 96 98 92 90 86 84 76 71 71 61 53 58 58 72 75 70 69 47 37 24 15 15
199 183 103 116 123 170 166 114 90 125 154 190 50 174 241 54 69 145 135 121 110 108 105 110 96 87 82 90 83 80 73 72 67 53 60 69 71 69 72 65 53 34 10 4
178 201 163 161 129 181 187 151 103 172 169 139 347 213 230 63 74 109 114 119 112 112 118 104 104 101 90 76 80 78 80 71 73 75 72 70 75 81 81 81 84 72 31 22
166 151 40 23 49 332 148 143 68 98 125 104 197 268 171 113 105 116 127 136 128 124 123 123 122 111 103 93 88 97 102 96 84 81 87 82 104 121 98 89 66 55 31 32
329 119 5 75 161 39 29 147 87 25 145 214 192 197 218 176 147 137 146 141 134 132 130 126 115 102 98 99 97 95 91 97 123 132 112 107 89 73 71 65 54 47 39 38
316 346 82 147 243 153 129 147 73 72 117 203 134 238 351 201 162 156 157 148 144 143 128 123 116 115 114 105 108 130 135 114 90 80 80 77 68 68 68 64 57 50 47 33
232 351 126 71 344 14 354 146 165 161 188 262 107 270 335 1 150 152 155 150 140 136 136 132 134 135 137 146 149 127 114 89 85 84 78 71 68 66 67 65 56 35 53 42
165 294 105 74 4 40 238 215 329 34 61 201 118 258 316 16 140 155 145 146 145 140 140 146 152 158 158 158 128 110 94 88 83 86 86 81 72 67 61 55 49 54 54 52
78 194 357 70 30 115 176 202 202 187 170 147 213 176 187 189 162 159 155 157 152 155 159 164 167 163 157 134 117 106 96 95 95 90 83 76 68 65 66 64 59 48 42 43
62 215 212 112 2 178 194 198 191 208 216 204 184 230 203 189 192 175 160 153 154 164 173 177 169 148 133 122 116 107 98 99 98 92 95 93 83 75 67 53 46 48 54 41
105 295 193 50 44 249 308 193 208 218 225 258 272 263 234 165 162 145 163 163 174 179 181 175 158 142 143 140 133 119 109 107 110 107 98 95 92 83 68 61 55 54 51 39
164 159 120 179 348 326 337 214 195 207 214 217 231 241 161 167 182 177 173 174 182 182 177 174 156 152 146 143 139 137 135 129 120 113 105 105 87 85 74 65 54 45 34 27
149 126 336 89 24 289 243 67 190 204 210 220 244 98 156 184 188 152 170 174 184 179 170 159 144 134 128 128 126 127 128 125 121 126 119 98 91 87 62 57 50 40 27 23
120 177 131 145 210 295 322 187 174 175 266 219 213 203 166 117 80 74 155 168 174 168 158 148 142 140 136 135 132 134 128 130 138 135 118 109 115 104 65 59 45 38 19 359
64 12 52 108 208 212 237 113 327 117 289 357 348 194 150 123 161 228 172 157 155 150 149 144 138 135 136 137 139 141 141 146 152 145 123 123 116 101 67 44 12 44 338 337
164 135 179 207 256 289 195 147 296 92 231 16 0 334 160 184 182 230 137 129 138 136 136 131 136 143 141 147 149 142 144 154 130 112 131 132 104 93 73 24 350 5 344 354
172 151 173 176 219 267 140 51 164 192 87 80 300 281 259 128 100 130 117 126 129 130 132 131 134 137 142 139 142 143 146 121 127 139 141 115 84 330 39 43 331 341 310 309
258 202 184 180 210 266 202 138 143 128 138 154 307 301 117 129 128 133 136 135 139 140 141 136 134 127 123 138 144 143 138 135 126 118 135 168 187 338 350 280 300 341 287 256
246 153 217 41 250 212 224 269 157 157 186 173 221 267 156 147 146 136 133 138 138 132 133 122 131 138 142 122 108 125 130 123 133 153 187 191 188 227 249 302 266 217 260 266
204 126 193 262 282 281 249 223 197 197 172 172 163 187 158 136 147 138 134 126 127 130 129 147 152 153 152 141 122 122 137 141 161 181 184 196 168 184 268 235 219 238 261 230
185 189 179 215 225 178 191 332 208 164 184 186 159 135 96 129 134 122 133 143 150 153 142 141 143 140 150 150 156 156 149 156 163 171 171 185 187 205 208 231 290 288 280 267